| time (UTC) | temp C | wind direction | speed KPH | gust KPH | rain 1hr cm | rain 24hr cm | rain mn cm | humidity % | barometer mb |
| 20260506044532 | 12 | 53 | 8.0 | 14.5 | 0.00 | 0.00 | 0.00 | 47 | 1015.1 |
| 20260506043022 | 13 | 60 | 12.9 | 20.9 | 0.00 | 0.00 | 0.00 | 44 | 1015.0 |
| 20260506041517 | 13 | 47 | 12.9 | 19.3 | 0.00 | 0.00 | 0.00 | 42 | 1014.9 |
| 20260506040011 | 13 | 82 | 16.1 | 32.2 | 0.00 | 0.00 | 0.00 | 40 | 1014.7 |
| 20260506034505 | 14 | 70 | 14.5 | 29.0 | 0.00 | 0.00 | 0.00 | 38 | 1014.5 |
| 20260506033005 | 15 | 84 | 20.9 | 32.2 | 0.00 | 0.00 | 0.00 | 36 | 1014.3 |
| 20260506031504 | 15 | 316 | 24.1 | 43.5 | 0.00 | 0.00 | 0.00 | 34 | 1014.1 |
| 20260506030017 | 16 | 294 | 27.4 | 45.1 | 0.00 | 0.00 | 0.00 | 34 | 1014.0 |
| 20260506024518 | 16 | 96 | 22.5 | 38.6 | 0.00 | 0.00 | 0.00 | 33 | 1013.9 |
| 20260506023016 | 16 | 86 | 27.4 | 35.4 | 0.00 | 0.00 | 0.00 | 34 | 1013.7 |
| 20260506021509 | 16 | 61 | 29.0 | 45.1 | 0.00 | 0.00 | 0.00 | 35 | 1013.6 |
| 20260506020004 | 16 | 134 | 27.4 | 43.5 | 0.00 | 0.00 | 0.00 | 34 | 1013.3 |
| 20260506014504 | 16 | 70 | 25.7 | 48.3 | 0.00 | 0.00 | 0.00 | 35 | 1013.3 |
| 20260506013020 | 16 | 55 | 25.7 | 46.7 | 0.00 | 0.00 | 0.00 | 36 | 1013.2 |
| 20260506011535 | 16 | 59 | 37.0 | 53.1 | 0.00 | 0.00 | 0.00 | 35 | 1013.0 |
| 20260506010015 | 16 | 65 | 40.2 | 49.9 | 0.00 | 0.00 | 0.00 | 35 | 1012.9 |
| 20260506004520 | 17 | 105 | 33.8 | 59.5 | 0.00 | 0.00 | 0.00 | 34 | 1012.7 |
| 20260506003008 | 17 | 102 | 30.6 | 54.7 | 0.00 | 0.00 | 0.00 | 33 | 1012.7 |
| 20260506001507 | 18 | 89 | 37.0 | 56.3 | 0.00 | 0.00 | 0.00 | 31 | 1012.7 |
| 20260506000025 | 18 | 81 | 38.6 | 54.7 | 0.00 | 0.00 | 0.00 | 31 | 1012.7 |
| 20260505234517 | 18 | 50 | 40.2 | 62.8 | 0.00 | 0.00 | 0.00 | 32 | 1012.3 |
| 20260505233026 | 18 | 180 | 41.8 | 69.2 | 0.00 | 0.00 | 0.00 | 32 | 1012.2 |
| 20260505231518 | 18 | 77 | 38.6 | 64.4 | 0.00 | 0.00 | 0.00 | 30 | 1012.3 |
| 20260505230009 | 18 | 131 | 49.9 | 64.4 | 0.00 | 0.00 | 0.00 | 33 | 1012.2 |
| 20260505224508 | 18 | 82 | 40.2 | 69.2 | 0.00 | 0.00 | 0.00 | 34 | 1012.6 |
| 20260505223025 | 18 | 106 | 41.8 | 66.0 | 0.00 | 0.00 | 0.00 | 36 | 1012.7 |
| 20260505221522 | 17 | 72 | 35.4 | 59.5 | 0.00 | 0.00 | 0.00 | 39 | 1013.1 |
| 20260505220041 | 17 | 360 | 33.8 | 59.5 | 0.00 | 0.00 | 0.00 | 41 | 1013.2 |
| 20260505214525 | 18 | 57 | 41.8 | 61.2 | 0.00 | 0.00 | 0.00 | 38 | 1013.3 |
| 20260505213019 | 18 | 54 | 41.8 | 59.5 | 0.00 | 0.00 | 0.00 | 39 | 1013.5 |
| 20260505211537 | 17 | 173 | 35.4 | 69.2 | 0.00 | 0.00 | 0.00 | 43 | 1013.5 |
| 20260505210024 | 18 | 90 | 49.9 | 69.2 | 0.00 | 0.00 | 0.00 | 42 | 1013.5 |
| 20260505204525 | 18 | 71 | 41.8 | 64.4 | 0.00 | 0.00 | 0.00 | 40 | 1013.7 |
| 20260505203024 | 18 | 143 | 38.6 | 57.9 | 0.00 | 0.00 | 0.00 | 42 | 1014.0 |
| 20260505201520 | 18 | 55 | 48.3 | 66.0 | 0.00 | 0.00 | 0.00 | 42 | 1013.8 |
| 20260505200015 | 17 | 77 | 46.7 | 64.4 | 0.00 | 0.00 | 0.00 | 42 | 1014.1 |
| 20260505194528 | 17 | 58 | 40.2 | 77.2 | 0.00 | 0.00 | 0.00 | 42 | 1014.3 |
| 20260505193034 | 17 | 86 | 48.3 | 62.8 | 0.00 | 0.00 | 0.00 | 43 | 1014.3 |
| 20260505191526 | 18 | 11 | 40.2 | 61.2 | 0.00 | 0.00 | 0.00 | 42 | 1014.1 |
| 20260505190005 | 17 | 146 | 37.0 | 59.5 | 0.00 | 0.00 | 0.00 | 41 | 1014.3 |
| 20260505184504 | 17 | 93 | 38.6 | 49.9 | 0.00 | 0.00 | 0.00 | 42 | 1014.9 |
| 20260505183029 | 17 | 61 | 37.0 | 57.9 | 0.00 | 0.00 | 0.00 | 41 | 1015.0 |
| 20260505181518 | 17 | 135 | 35.4 | 46.7 | 0.00 | 0.00 | 0.00 | 40 | 1015.0 |
| 20260505180016 | 18 | 74 | 37.0 | 51.5 | 0.00 | 0.00 | 0.00 | 36 | 1015.2 |
| 20260505174510 | 16 | 32 | 35.4 | 48.3 | 0.00 | 0.00 | 0.00 | 41 | 1015.4 |
| 20260505173008 | 16 | 46 | 24.1 | 40.2 | 0.00 | 0.00 | 0.00 | 40 | 1015.4 |
| 20260505171524 | 15 | 63 | 27.4 | 38.6 | 0.00 | 0.00 | 0.00 | 41 | 1015.4 |
| 20260505170026 | 15 | 101 | 25.7 | 43.5 | 0.00 | 0.00 | 0.00 | 41 | 1015.3 |
| 20260505164519 | 16 | 55 | 29.0 | 37.0 | 0.00 | 0.00 | 0.00 | 40 | 1015.1 |
| 20260505163016 | 16 | 97 | 30.6 | 49.9 | 0.00 | 0.00 | 0.00 | 40 | 1015.2 |
| 20260505161514 | 16 | 1 | 32.2 | 41.8 | 0.00 | 0.00 | 0.00 | 39 | 1015.1 |
| 20260505153025 | 14 | 65 | 25.7 | 37.0 | 0.00 | 0.00 | 0.00 | 49 | 1015.2 |
| 20260505151521 | 13 | 119 | 25.7 | 40.2 | 0.00 | 0.00 | 0.00 | 52 | 1015.3 |
| 20260505124536 | 13 | 83 | 22.5 | 30.6 | 0.00 | 0.00 | 0.00 | 49 | 1015.0 |
| 20260505123011 | 13 | 23 | 25.7 | 35.4 | 0.00 | 0.00 | 0.00 | 50 | 1014.6 |
| 20260505121505 | 13 | 47 | 24.1 | 33.8 | 0.00 | 0.00 | 0.00 | 49 | 1014.3 |
| 20260505120003 | 13 | 73 | 27.4 | 38.6 | 0.00 | 0.00 | 0.00 | 50 | 1014.1 |
| 20260505114514 | 13 | 70 | 29.0 | 38.6 | 0.00 | 0.00 | 0.00 | 50 | 1014.2 |
| 20260505113015 | 13 | 26 | 24.1 | 37.0 | 0.00 | 0.00 | 0.00 | 49 | 1014.3 |
| 20260505111517 | 13 | 46 | 29.0 | 37.0 | 0.00 | 0.00 | 0.00 | 49 | 1014.5 |
| 20260505101518 | 14 | 97 | 22.5 | 33.8 | 0.00 | 0.00 | 0.00 | 46 | 1014.6 |
| 20260505100017 | 13 | 57 | 20.9 | 30.6 | 0.00 | 0.00 | 0.00 | 50 | 1014.7 |
| 20260505094518 | 13 | 32 | 19.3 | 27.4 | 0.00 | 0.00 | 0.00 | 52 | 1014.5 |
| 20260505093014 | 13 | 58 | 22.5 | 30.6 | 0.00 | 0.00 | 0.00 | 52 | 1014.9 |
| 20260505091513 | 13 | 34 | 22.5 | 32.2 | 0.00 | 0.00 | 0.00 | 47 | 1015.1 |
| 20260505090006 | 13 | 149 | 24.1 | 29.0 | 0.00 | 0.00 | 0.00 | 49 | 1014.9 |
| 20260505084540 | 13 | 32 | 20.9 | 30.6 | 0.00 | 0.00 | 0.00 | 50 | 1014.9 |
| 20260505083018 | 13 | 58 | 20.9 | 32.2 | 0.00 | 0.00 | 0.00 | 55 | 1015.1 |
| 20260505081519 | 12 | 54 | 19.3 | 27.4 | 0.00 | 0.00 | 0.00 | 61 | 1015.2 |
| 20260505080020 | 12 | 44 | 16.1 | 27.4 | 0.00 | 0.00 | 0.00 | 62 | 1015.1 |
| 20260505074512 | 13 | 74 | 17.7 | 32.2 | 0.00 | 0.00 | 0.00 | 55 | 1015.6 |
| 20260505073026 | 15 | 47 | 25.7 | 40.2 | 0.00 | 0.00 | 0.00 | 45 | 1015.4 |
| 20260505071521 | 13 | 68 | 19.3 | 32.2 | 0.00 | 0.00 | 0.00 | 50 | 1015.6 |
| 20260505070028 | 14 | 51 | 27.4 | 41.8 | 0.00 | 0.00 | 0.00 | 49 | 1015.4 |
| 20260505064522 | 16 | 58 | 30.6 | 48.3 | 0.00 | 0.00 | 0.00 | 40 | 1015.1 |
| 20260505063028 | 16 | 68 | 27.4 | 40.2 | 0.00 | 0.00 | 0.00 | 37 | 1015.2 |
| 20260505061520 | 16 | 43 | 27.4 | 38.6 | 0.00 | 0.00 | 0.00 | 37 | 1015.1 |
| 20260505060032 | 16 | 70 | 24.1 | 32.2 | 0.00 | 0.00 | 0.00 | 36 | 1015.2 |
| 20260505054526 | 16 | 66 | 16.1 | 24.1 | 0.00 | 0.00 | 0.00 | 35 | 1015.5 |
| 20260505053006 | 16 | 30 | 17.7 | 32.2 | 0.00 | 0.00 | 0.00 | 35 | 1015.8 |
| 20260505051503 | 16 | 85 | 17.7 | 29.0 | 0.00 | 0.00 | 0.00 | 34 | 1016.0 |